Terug naar catalogus

STARLINK-31308

ActiefCommunicatieVLEO
NORAD 59153·PAYLOAD·🇺🇸 United States

Gelanceerd Mar 4, 2024 vanaf Cape Canaveral Space Force Station

Loading…

Volgende Passages (komende 24 uur)

TLE

VersSource: CelesTrak SupGP

Epoch: Sep 14, 2026, 20:52 UTC

1 59153C 24044B   26257.86993056  .00014211  00000+0  51489-3 0  2570
2 59153  43.0013  71.8038 0001485 276.5929 300.2297 15.27560261    10

Volg STARLINK-31308 in realtime met AllMySat

Download on the App Store